Location: Fornova de Taro
(44.7000°N, 10.1000°E)
Time: 03:00:05
(UTC+00:00)

USA 229 - Pass Details

Date: 26 May 2022
Orbit: 938 x 1274 km, 63.4° (Epoch: 24 May)

Event Time Altitude Azimuth Distance (km) Brightness Sun altitude
Rises 01:02:25 0° 317° (NW) 4,012 7.0 -19.9°
Reaches altitude 10° 01:05:14 10° 310° (NW) 3,094 6.3 -19.7°
Maximum altitude 01:12:03 40° 245° (WSW) 1,743 4.4 -19.1°
Enters shadow 01:15:15 28° 200° (SSW) 2,146 4.7 -18.9°
